HST (20580 NORAD) Tracking and Keplerian Element Data

This shows tracking and keplerian element data for the satellite.

Feedback or suggestion? Click here.




ElementValue
Catalog20580
NameHST
Epoch Orbit51802
Epoch Day213.14777144
Epoch Year2021
RAAN129.3386
Inclination28.4697
Eccentricity0.0002744
Argument of Perigee180.5027
Mean Anonmoly316.5365
Mean Motion15.09694417
Decay Rate6.01E-06
L11 20580U 90037B 21213.14777144 .00000601 00000-0 25364-4 0 9999
L22 20580 28.4697 129.3386 0002744 180.5027 316.5365 15.09694417518026

Live tracking and technical data element details for HST (NORAD 20580). HST can be tracked NOW for your location showing map with azimuth and elevation plus other details from your city location.

Track the satellite on the map from your city or location and see movement details for azimuth, elevation, latitude, longitude, range, height, and movement on the map or in text.







IsCatalogInMostPopularTable: catalog: 20580, numindb: 923
Update: records affected: 1



GetName: 20580 HST

Hit Count: updated at: Mon, 02 Aug 2021 03:39:17 GMT